Weather in Akulichi

Russia / Bryansk Oblast     53°11′24″N   33°13′10″E
temp.,
°C
wind,
m/s
gust,
m/s
humid.,
%
clouds,
%
prec.,
mm/h
press.,
hPa
HPBL,
m
7 may, fri
fri700:00+5sw2288100 0.1 101131
03:00+3wsw23844 0.1 101247
06:00+3sw23811 0.0 101253
09:00+10ssw47585 0.0 1012644
12:00+13ssw5844100 0.0 10122047
15:00+14ssw5850100 0.0 10112121
18:00+13ssw4859100 0.1 10101264
21:00+9sse41181100 0.8 10091077
8 may, sat
sat800:00+9s61490100 2.3 1007850
03:00+10s4998100 3.1 1005653
06:00+9wsw2499100 0.9 1004283
09:00+11wnw3488100 1.3 1004582
12:00+9nnw4790100 0.9 1005550
15:00+7nw5892100 2.0 1006677
18:00+6nw71291100 5.3 10081038
21:00+5nw61192100 6.9 1011953
9 may, sun
sun900:00+4wnw51289100 0.2 1013663
03:00+2wnw5129039 0.2 1016409
06:00+2nw413895 0.0 1018500
09:00+6nw69665 0.0 10201024
12:00+10nw684324 0.0 10212209
15:00+12nw6838100 0.0 10222667
18:00+11nnw464845 0.0 10241917
21:00+5wnw22715 0.0 102719
10 may, mon
mon1000:00+4nw22745 0.0 102820
03:00+3nnw11676 0.0 102910
06:00+4se00685 0.0 103010
09:00+10s22515 0.0 1031397
12:00+14s22400 0.0 10311314
15:00+16ssw11389 0.0 10301530
18:00+15ese124326 0.0 10291156
21:00+9e11640 0.0 103011
11 may, tue
tue1100:00+7ene22700 0.0 103021
03:00+6e22750 0.0 103021
06:00+6ene24780 0.0 103068
09:00+12ene47589 0.0 1030522
12:00+16e57469 0.0 10291091
15:00+18e574212 0.0 10271278
18:00+17e4856100 0.0 1027692
21:00+11e388421 0.0 1027148